Find Starlink 2499

NORAD ID: 48377 Int'l Des: 2021-038 Owner: SPXS Country: US Constellation: starlink operational
LEOCIRCULAR

現在のビュー

3D地球を読み込み中...

About Starlink 2499

Starlink 2499 (NORAD 48377) is a starlink constellation satellite (v1.0) launched May 4, 2021 by SPXS of US. It operates in LEO, CIRCULAR orbit with a mass of 260.00 kg.

次回通過

Passes for default location (London). Set your location on the main map for personalized predictions.

高度履歴

Loading altitude history...

軌道要素

1 48377U 21038AA 26246.39518817 .00000943 00000-0 42169-4 0 9997
2 48377 53.1595 240.8824 0001515 85.2922 274.8252 15.31694590294454
Epoch: Sep 3, 2026 • Age: 17 hours

現在のステータス

高度 471.6 km
遠地点 / 近地点 N/A
速度 7.63 km/s
衛星直下点 0.17°N, 146.25°W
打ち上げ日 May 4, 2021
運用期間 5.3 years
タイプ internet

技術仕様

分類 Payload
質量 260.00 kg
乾燥質量 248.00 kg
総質量 260.00 kg
長さ 0.20 m
直径 2.80 m
スパン 9.00 m
形状 Box + pan
製造者 SPXS
バスタイプ Starlink
フェーズステータス In Orbit
所有者/国 SPXS/US

Most Searched